Weather History for KACK - August, 2013

Change the Weather History Date:

Saturday, August 31, 2013

  Actual Average Record
Temperature  
Mean Temperature 70 °F -  
Max Temperature 75 °F 75 °F 87 °F (1973)
Min Temperature 66 °F 59 °F 39 °F (1965)
Cooling Degree Days 4    
Growing Degree Days 20 (Base 50)    
Moisture  
Dew Point 67 °F    
Average Humidity 92    
Maximum Humidity 100    
Minimum Humidity 83    
Precipitation  
Precipitation 0.00 in - - ()
Sea Level Pressure  
Sea Level Pressure 29.88 in    
Wind  
Wind Speed 12 mph (SW)    
Max Wind Speed 15 mph    
Max Gust Speed -    
Visibility 7 miles    
Events      
Averages and records for this station are not official NWS values.
T = Trace of Precipitation, MM = Missing Value Source: NWS Daily Summary

Daily Weather History Graph

Daily Weather History Graph

Search for Another Location

Airport or City:

Trip Planner

Search our weather history database for the weather conditions in past years. The results will help you decide how hot, cold, wet, or windy it might be!

Date:

Astronomy

Aug. 31, 2013 Rise Set
Actual Time 6:05 AM EDT 7:14 PM EDT
Civil Twilight 5:37 AM EDT 7:42 PM EDT
Nautical Twilight 5:03 AM EDT 8:16 PM EDT
Astronomical Twilight 4:27 AM EDT 8:51 PM EDT
Moon 1:30 AM EDT (8/31) 4:12 PM EDT (8/31)
Length of Visible Light 14h 05m
Length of Day
13h 08m
Waning Crescent, 21% of the Moon is Illuminated
Aug 31
Waning Crescent
Sep 5
New
Sep 12
First Quarter
Sep 19
Full
Sep 26
Last Quarter

Hourly Weather History & Observations

Time (EDT) Temp. Dew Point Humidity Pressure Visibility Wind Dir Wind Speed Gust Speed Precip Events Conditions
12:53 AM 66.9 °F 66.0 °F 97% 29.89 in 7.0 mi SW 10.4 mph - N/A   Clear
1:53 AM 66.9 °F 66.0 °F 97% 29.88 in 7.0 mi SW 11.5 mph - N/A   Clear
2:46 AM 66.2 °F 66.2 °F 100% 29.87 in 7.0 mi SW 12.7 mph - N/A   Mostly Cloudy
2:53 AM 68.0 °F 66.0 °F 93% 29.88 in 7.0 mi SW 13.8 mph - N/A   Mostly Cloudy
3:05 AM 68.0 °F 66.2 °F 94% 29.87 in 7.0 mi SW 13.8 mph - N/A   Overcast
3:20 AM 68.0 °F 66.2 °F 94% 29.87 in 7.0 mi SW 13.8 mph - N/A   Overcast
3:53 AM 68.0 °F 66.0 °F 93% 29.87 in 7.0 mi SW 13.8 mph - N/A   Overcast
4:17 AM 68.0 °F 66.2 °F 94% 29.87 in 6.0 mi SW 13.8 mph - N/A   Scattered Clouds
4:29 AM 68.0 °F 66.2 °F 94% 29.87 in 6.0 mi SW 12.7 mph - N/A   Mostly Cloudy
4:36 AM 68.0 °F 66.2 °F 94% 29.87 in 6.0 mi SW 12.7 mph - N/A   Partly Cloudy
4:53 AM 68.0 °F 66.0 °F 93% 29.87 in 6.0 mi SW 11.5 mph - N/A   Mostly Cloudy
5:00 AM 68.0 °F 66.2 °F 94% 29.87 in 6.0 mi SW 13.8 mph - N/A   Mostly Cloudy
5:35 AM 68.0 °F 66.2 °F 94% 29.87 in 6.0 mi SW 11.5 mph - N/A   Scattered Clouds
5:48 AM 68.0 °F 66.2 °F 94% 29.87 in 6.0 mi SW 13.8 mph - N/A   Mostly Cloudy
5:53 AM 68.0 °F 66.0 °F 93% 29.88 in 6.0 mi SW 12.7 mph - N/A   Mostly Cloudy
6:13 AM 68.0 °F 66.2 °F 94% 29.88 in 3.0 mi SW 10.4 mph - N/A   Mostly Cloudy
6:53 AM 68.0 °F 66.0 °F 93% 29.88 in 5.0 mi SW 11.5 mph - N/A   Mostly Cloudy
7:53 AM 69.1 °F 66.9 °F 93% 29.88 in 5.0 mi SW 13.8 mph - N/A   Partly Cloudy
8:53 AM 69.1 °F 66.9 °F 93% 29.89 in 6.0 mi SW 13.8 mph - N/A   Clear
9:53 AM 72.0 °F 68.0 °F 87% 29.89 in 8.0 mi SW 15.0 mph - N/A   Clear
10:53 AM 73.0 °F 68.0 °F 84% 29.90 in 9.0 mi SW 15.0 mph - N/A   Clear
11:53 AM 73.0 °F 68.0 °F 84% 29.89 in 9.0 mi SW 13.8 mph - N/A   Clear
12:53 PM 73.0 °F 68.0 °F 84% 29.89 in 8.0 mi SSW 11.5 mph - N/A   Mostly Cloudy
1:01 PM 73.4 °F 68.0 °F 83% 29.89 in 8.0 mi SW 13.8 mph - N/A   Mostly Cloudy
1:53 PM 73.0 °F 68.0 °F 84% 29.89 in 8.0 mi SSW 13.8 mph - N/A   Mostly Cloudy
2:53 PM 73.9 °F 69.1 °F 85% 29.88 in 8.0 mi SSW 15.0 mph - N/A   Mostly Cloudy
3:53 PM 73.0 °F 68.0 °F 84% 29.88 in 8.0 mi SSW 13.8 mph - N/A   Mostly Cloudy
4:00 PM 73.4 °F 68.0 °F 83% 29.88 in 8.0 mi SSW 15.0 mph - N/A   Partly Cloudy
4:53 PM 71.1 °F 68.0 °F 90% 29.88 in 8.0 mi SSW 13.8 mph - N/A   Clear
5:44 PM 69.8 °F 68.0 °F 94% 29.87 in 6.0 mi SSW 9.2 mph - N/A   Scattered Clouds
5:53 PM 70.0 °F 68.0 °F 93% 29.87 in 6.0 mi SSW 9.2 mph - N/A   Scattered Clouds
6:53 PM 69.1 °F 68.0 °F 96% 29.87 in 6.0 mi SSW 11.5 mph - N/A   Scattered Clouds
7:53 PM 69.1 °F 68.0 °F 96% 29.88 in 7.0 mi SSW 11.5 mph - N/A   Clear
8:53 PM 69.1 °F 66.9 °F 93% 29.89 in 7.0 mi South 8.1 mph - N/A   Clear
9:53 PM 69.1 °F 66.9 °F 93% 29.90 in 7.0 mi SSW 11.5 mph - N/A   Clear
10:53 PM 69.1 °F 66.9 °F 93% 29.90 in 7.0 mi SSW 11.5 mph - N/A   Partly Cloudy
11:53 PM 69.1 °F 68.0 °F 96% 29.90 in 7.0 mi SSW 12.7 mph - N/A   Clear